Location: Moscow
(38.3171°N, 79.0889°W)
Time: 01:40:13
(UTC+00:00)

Landsat 7 - Pass Details

Date: 07 November 2025
Orbit: 680 x 682 km, 97.9° (Epoch: 08 December)

Event Time Altitude Azimuth Distance (km) Brightness Sun altitude
Rises 23:08:04 0° 172° (S) 3,028 7.2 -11.7°
Reaches altitude 10° 23:10:18 10° 174° (S) 2,117 6.4 -12.1°
Maximum altitude 23:14:55 71° 258° (WSW) 724 4.1 -13.0°
Drops below altitude 10° 23:19:35 10° 343° (NNW) 2,131 6.4 -13.9°
Sets 23:21:51 0° 346° (NNW) 3,050 7.2 -14.4°
